Location: Overspoor
(51.4747°N, 5.6641°E)
Time: 15:29:41
(UTC+02:00)

RS-15 - Pass Details

Date: 02 July 2022
Orbit: 1881 x 2163 km, 64.8° (Epoch: 13 August)

Event Time Altitude Azimuth Distance (km) Brightness Sun altitude
Rises 03:18:46 0° 320° (NW) 5,700 10.9 -12.5°
Reaches altitude 10° 03:23:17 10° 308° (NW) 4,683 10.2 -12.2°
Maximum altitude 03:31:46 23° 263° (W) 3,684 9.2 -11.6°
Enters shadow 03:39:24 12° 220° (SW) 4,425 9.3 -11.1°
